{"data":{"norad_id":65634,"intl_designator":"2025-210N","name":"STARLINK-35123","alt_names":[],"object_type":"PAYLOAD","status":"ACTIVE","operator":null,"country":"US","launch_date":"2025-09-18","launch_site_code":"AFETR","launch_vehicle":null,"mission":null,"orbit_class":"UNKNOWN","rcs_meters":null,"size_class":null,"mass_kg":null,"dimensions":null,"purposes":["comms"],"wikipedia_slug":null,"has_3d_model":false,"image_url":null,"decayed_at":null,"tle_current":{"epoch":"2026-05-24T21:04:14.516256Z","epoch_age_seconds":88668,"freshness":"FRESH","line1":"1 65634U 25210N   26144.87794579  .00029016  00000+0  98778-3 0  9996","line2":"2 65634  53.1597 313.3450 0001014  79.0156 281.0959 15.30205901 39393","mean_motion":15.30205901,"eccentricity":0.0001014,"inclination_deg":53.1597,"raan_deg":313.345,"arg_perigee_deg":79.0156,"mean_anomaly_deg":281.0959,"bstar":0.00098778,"rev_number":3939,"period_min":94.10498280388,"perigee_km":474.50252204036,"apogee_km":475.89237826685,"semimajor_km":6853.3344501536,"source":"CELESTRAK","updated_at":"2026-05-25T13:38:20.883379Z"}}}